Location: Casale Sant�Antonio
(41.9833°N, 12.6167°E)
Time: 10:06:47
(UTC+00:00)

Daily predictions for brighter satellites

Satellite Brightness Start Highest point End
(mag) Time Altitude Azimuth Time Altitude Azimuth Time Altitude Azimuth
STARLINK-1075 4.1 17:57:42 10° NW 18:00:29 29° NNE 18:03:16 10° E
STARLINK-1093 4.1 17:58:06 10° NW 18:00:56 29° NNE 18:03:46 10° E
STARLINK-1074 4.1 17:58:32 10° NW 18:01:22 30° NNE 18:04:13 10° E
STARLINK-1087 4.1 17:59:02 10° NW 18:01:50 29° NNE 18:04:38 10° E
STARLINK-1088 4.1 17:59:29 10° NW 18:02:17 30° NNE 18:05:06 10° E
STARLINK-1115 4.1 17:59:53 10° NW 18:02:45 30° NNE 18:05:35 10° E
STARLINK-1076 4.1 18:00:20 10° NW 18:03:11 30° NNE 18:06:02 10° E
STARLINK-1092 4.1 18:00:48 10° NW 18:03:39 31° NNE 18:06:30 10° E
STARLINK-1080 4.0 18:01:17 10° NW 18:04:06 30° NNE 18:06:56 10° E
STARLINK-1090 4.0 18:01:43 10° NW 18:04:32 31° NNE 18:07:22 10° E
Cosmos 1470 4.3 18:02:11 10° SE 18:04:33 16° E 18:06:55 10° NE
STARLINK-1089 4.0 18:02:10 10° NW 18:05:01 31° NNE 18:07:50 10° E
STARLINK-1107 4.0 18:02:36 10° NW 18:05:28 31° NNE 18:08:17 10° E
STARLINK-1241 3.5 18:01:45 10° SW 18:05:44 72° SE 18:09:45 10° NE
Cosmos 1271 Rocket 3.4 18:02:08 10° NNW 18:05:50 57° W 18:09:29 10° S
STARLINK-1233 3.6 18:06:15 10° WSW 18:09:19 55° NW 18:12:25 10° NE
STARLINK-1212 3.6 18:06:43 10° WSW 18:09:47 55° NW 18:12:52 10° NE
STARLINK-1105 3.6 18:07:10 10° WSW 18:10:14 54° NW 18:13:19 10° NE
STARLINK-1239 3.5 18:06:18 10° SW 18:10:18 79° SE 18:14:20 10° NE
SJ-6B 4.1 18:07:20 10° ESE 18:10:39 25° ENE 18:14:01 10° NNE
STARLINK-1206 3.6 18:07:39 10° WSW 18:10:42 53° NW 18:13:46 10° NE
STARLINK-1247 3.6 18:08:06 10° WSW 18:11:09 53° NNW 18:14:13 10° NE
ISS -1.3 18:09:24 10° NW 18:11:32 16° N 18:13:40 10° NE
STARLINK-1227 3.7 18:08:31 10° WSW 18:11:34 53° NW 18:14:40 10° NE
CZ-2C R/B 3.6 18:07:00 10° SE 18:11:39 37° ENE 18:16:07 10° N
STARLINK-1218 3.7 18:09:00 10° WSW 18:12:03 52° NNW 18:15:07 10° NE
STARLINK-1226 3.7 18:09:28 10° WSW 18:12:31 51° NNW 18:15:35 10° NE
Cosmos 2369 Rocket 4.1 18:09:48 10° NNE 18:12:32 13° NE 18:15:17 10° ENE
STARLINK-1254 3.7 18:09:52 10° WSW 18:12:55 51° NW 18:16:00 10° NE
STARLINK-1215 3.7 18:10:23 10° WSW 18:13:25 50° NNW 18:16:28 10° NE
STARLINK-1231 3.7 18:10:49 10° WSW 18:13:51 50° NNW 18:16:54 10° NE
Cosmos 1048 Rocket 4.3 18:08:52 10° SSW 18:13:58 71° WNW 18:19:09 10° NNE
Cosmos 304 Rocket 4.0 18:09:22 10° N 18:14:00 48° ENE 18:18:37 10° SE
STARLINK-1232 3.8 18:11:44 10° WSW 18:14:46 49° NNW 18:17:48 10° NE
STARLINK-1240 3.5 18:10:53 10° SW 18:14:54 85° SE 18:18:56 10° NE
STARLINK-1217 3.8 18:12:11 10° WSW 18:15:13 48° NNW 18:18:15 10° NE
STARLINK-1208 3.8 18:12:37 10° WSW 18:15:39 48° NNW 18:18:43 10° NE
Meteor 1-22 Rocket 4.1 18:10:45 10° S 18:15:56 57° E 18:21:06 10° NNE
STARLINK-1229 3.8 18:13:05 10° WSW 18:16:07 48° NNW 18:19:09 10° NE
STARLINK-1271 3.8 18:13:33 10° WSW 18:16:34 47° NNW 18:19:37 10° NE
STARLINK-1270 3.9 18:14:01 10° WSW 18:17:02 47° NNW 18:20:04 10° NE
Resurs 01 Rocket 3.6 18:15:35 10° E 18:17:16 12° ENE 18:18:57 10° NE
STARLINK-1154 3.9 18:14:27 10° WSW 18:17:28 46° NNW 18:20:30 10° NE
Cosmos 1939 Rocket 4.3 18:13:59 10° S 18:17:45 40° W 18:21:29 10° NNW
STARLINK-1197 3.9 18:15:22 10° WSW 18:18:22 45° NNW 18:21:24 10° NE
STARLINK-1189 3.9 18:15:49 10° WSW 18:18:50 45° NNW 18:21:51 10° NE
STARLINK-1216 3.5 18:15:30 10° SW 18:19:31 88° NW 18:23:33 10° NE
STARLINK-1187 4.2 18:16:43 10° WSW 18:19:42 40° NNW 18:22:41 10° NE
STARLINK-1188 4.0 18:16:43 10° WSW 18:19:44 44° NNW 18:22:44 10° NE
STARLINK-1198 4.0 18:16:59 10° WSW 18:19:59 44° NNW 18:22:59 10° NE
Cosmos 494 Rocket 3.9 18:15:10 10° SSW 18:20:17 77° ESE 18:25:29 10° NNE
STARLINK-1235 4.4 18:17:29 10° W 18:20:25 35° NNW 18:23:22 10° NE
STARLINK-1100 4.4 18:17:19 10° NW 18:21:05 37° NNE 18:24:11 14° E
Cosmos 1733 3.1 18:17:31 10° S 18:21:14 63° E 18:24:58 10° NNE
Abrixas rocket 3.5 18:19:18 10° S 18:21:30 19° SE 18:22:33 16° ESE
STARLINK-1199 4.0 18:18:41 10° WSW 18:21:41 43° NNW 18:24:42 10° NE
STARLINK-1191 4.1 18:19:09 10° WSW 18:22:09 42° NNW 18:25:10 10° NE
STARLINK-1210 4.1 18:19:36 10° WSW 18:22:36 42° NNW 18:25:37 10° NE
Cosmos 371 Rocket 3.8 18:18:13 10° NNW 18:23:00 63° WSW 18:27:45 10° S
STARLINK-1221 4.1 18:20:04 10° WSW 18:23:04 42° NNW 18:26:05 10° NE
STARLINK-1219 4.1 18:20:31 10° WSW 18:23:31 41° NNW 18:26:31 10° NE
FREGAT/IRIS 3.0 18:21:09 10° SE 18:23:39 35° ENE 18:26:11 10° N
STARLINK-1222 4.1 18:20:57 10° WSW 18:23:57 41° NNW 18:26:57 10° NE
STARLINK-1237 3.6 18:20:09 10° SW 18:24:10 81° NW 18:28:12 10° NE
USA 81 4.0 18:18:52 10° N 18:24:10 76° E 18:29:25 10° S
STARLINK-1211 4.1 18:21:25 10° WSW 18:24:24 41° NNW 18:27:24 10° NE
SPOT 3 Rocket 4.5 18:20:04 10° SE 18:24:30 29° ENE 18:28:58 10° N
STARLINK-1214 4.2 18:21:53 10° WSW 18:24:51 40° NNW 18:27:52 10° NE
STARLINK-1245 4.2 18:22:23 10° WSW 18:25:20 40° NNW 18:28:19 10° NE
STARLINK-1083 4.4 18:21:53 10° NW 18:25:43 39° NNE 18:28:36 16° E
STARLINK-1238 4.2 18:22:48 10° WSW 18:25:47 40° NNW 18:28:46 10° NE
STARLINK-1205 4.2 18:23:45 10° WSW 18:26:42 39° NNW 18:29:40 10° NE
Cosmos 1709 Rocket 4.2 18:21:05 10° N 18:27:05 48° ENE 18:32:59 10° SSE
STARLINK-1204 4.2 18:24:11 10° WSW 18:27:08 38° NNW 18:30:05 10° NE
Cosmos 1331 Rocket 3.9 18:23:16 10° NNW 18:28:26 67° ENE 18:33:32 10° SSE
STARLINK-1202 3.7 18:24:46 10° WSW 18:28:47 75° NW 18:32:49 10° NE
Cosmos 1674 3.2 18:25:51 10° NNW 18:29:34 61° W 18:33:13 10° S
STARLINK-1125 4.3 18:26:29 10° NW 18:30:21 41° NNE 18:33:02 18° E
Orbus 7S? 2.9 18:28:07 10° NW 18:30:51 53° SW 18:32:46 14° SSE
SL-14 R/B 3.6 18:27:30 10° N 18:31:25 45° ENE 18:35:17 10° SSE
KORONAS-FOTON 4.3 18:28:55 10° NNW 18:32:42 62° W 18:36:26 10° S
STARLINK-1246 3.9 18:29:44 10° WSW 18:33:47 69° NW 18:37:50 10° NE
STARLINK-1109 4.2 18:30:46 10° NW 18:34:39 44° NNE 18:37:10 20° E
MONITOR-E 3.9 18:33:53 16° SSE 18:35:45 51° ENE 18:38:21 10° N
Cosmos 1766 4.1 18:33:02 10° SSW 18:36:57 55° W 18:40:53 10° N
S3M 4.4 18:32:20 10° SSW 18:38:41 72° W 18:45:05 10° N
Cosmos 1943 Rocket 3.4 18:34:14 10° N 18:38:43 24° NE 18:41:19 18° E
STARLINK-1091 4.1 18:35:25 10° NW 18:39:20 47° NNE 18:41:39 22° E
Ariane Rocket 3.0 18:35:08 10° SSE 18:40:13 87° WSW 18:45:19 10° NNW
STARLINK-1224 4.1 18:38:46 10° WSW 18:42:45 59° NNW 18:46:45 10° NE
Cosmos 1455 Rocket 3.2 18:39:33 10° SSW 18:43:52 75° W 18:48:14 10° N
BREEZE-M DEB (TANK) 3.4 18:34:29 10° WNW 18:45:02 62° SW 18:47:18 19° SE
STARLINK-1225 4.2 18:43:30 10° WSW 18:47:28 55° NNW 18:51:26 10° NE
Cosmos 1110 Rocket 4.2 18:44:03 10° NNW 18:49:17 71° WSW 18:54:27 10° S
STARLINK-1203 4.4 18:45:36 10° WSW 18:49:26 48° NNW 18:53:16 10° NE
SL-16 R/B 2.1 18:44:40 10° SSW 18:50:19 81° ESE 18:56:00 10° NNE
STARLINK-1230 4.3 18:48:10 10° WSW 18:52:07 51° NNW 18:56:03 10° NE
STARLINK-1072 3.7 18:48:34 10° NW 18:52:31 58° NNE 18:54:14 31° E
USA 186 2.0 18:49:20 10° S 18:52:46 76° WSW 18:56:12 10° NNW
ARGOS Delta rocket 4.4 18:48:45 10° S 18:53:44 66° W 18:59:02 10° NNW
Cosmos 1953 3.2 18:53:54 28° E 18:53:54 28° E 18:57:17 10° NNE
Cosmos 1626 Rocket 3.6 18:50:05 10° N 18:54:25 56° E 18:57:13 21° SSE
STARLINK-1243 4.5 18:52:55 10° WSW 18:56:49 47° NNW 19:00:45 10° NE
STARLINK-1096 3.6 18:53:01 10° NW 18:57:00 63° NE 18:58:31 34° ESE
Cosmos 1626 2.0 18:53:35 10° N 18:57:18 88° WSW 19:00:21 15° S
Aureole 3 3.8 18:57:25 28° SE 18:58:59 41° E 19:03:27 10° NNE
STARLINK-1079 3.5 18:57:29 10° NW 19:01:29 68° NE 19:02:49 39° ESE
Cosmos 1602 Rocket 3.7 18:57:36 10° N 19:01:59 53° E 19:03:54 30° SE
H-2A R/B 2.5 18:59:15 10° S 19:04:33 64° WSW 19:09:45 10° NNW
STARLINK-1116 3.5 19:01:57 10° NW 19:05:57 73° NE 19:07:08 43° ESE
ATLAS 2AS CENTAUR R/B 4.5 19:00:21 10° NNW 19:06:03 21° NNE 19:10:15 14° ENE
DMSP B5D2-2 4.1 19:02:16 10° NNE 19:07:23 54° E 19:12:29 10° S
Cosmos 1544 Rocket 4.5 19:07:05 10° SSW 19:11:20 50° W 19:15:40 10° N
Aureole 2 Rocket 4.3 19:08:41 10° N 19:10:31 19° NE 19:10:31 19° NE
Cosmos 1603 4.2 19:12:02 33° ESE 19:12:09 33° ESE 19:17:09 10° NE
STARLINK-1094 3.4 19:10:55 10° NW 19:14:56 86° NE 19:15:46 55° ESE
USA 234 3.4 19:08:46 10° NE 19:15:19 79° NW 19:21:51 10° WSW
CZ-2C R/B 3.8 19:12:09 10° NNE 19:16:56 85° WNW 19:21:37 10° SSW
Cosmos 2297 3.8 19:11:29 10° NNW 19:17:09 75° WSW 19:20:56 22° SSE
STARLINK-1117 3.4 19:15:26 10° NW 19:19:27 88° SW 19:20:06 61° SE
STARLINK-1078 3.4 19:19:55 10° NW 19:23:57 81° SW 19:24:26 67° SSE
Cosmos 1302 Rocket 4.2 19:21:35 10° NNW 19:26:51 71° WSW 19:29:43 27° S
STARLINK-1108 3.4 19:24:27 10° NW 19:28:28 75° SW 19:28:47 69° S
CZ-2C R/B 2.4 19:23:51 10° NNE 19:29:03 71° ESE 19:32:38 20° S
Cosmos 1992 Rocket 4.2 19:25:00 10° N 19:30:03 48° ENE 19:30:33 46° E
Cosmos 2184 Rocket 4.0 19:24:04 10° N 19:30:19 58° E 19:32:14 42° SE
Cosmos 1758 Rocket 3.9 19:26:25 10° N 19:30:09 45° NE 19:30:09 45° NE
ARGOS 4.2 19:27:36 10° S 19:32:43 43° W 19:37:52 10° NNW
STARLINK-1066 4.3 19:29:49 10° WNW 19:32:18 33° WSW 19:32:18 33° WSW
STARLINK-1071 3.5 19:28:58 10° WNW 19:32:59 69° SW 19:33:08 68° SSW
STARLINK-1081 4.4 19:30:17 10° WNW 19:32:41 32° WSW 19:32:41 32° WSW
STARLINK-1070 4.4 19:30:44 10° WNW 19:33:06 32° WSW 19:33:06 32° WSW
STARLINK-1124 3.6 19:29:53 10° WNW 19:34:01 68° SW 19:34:14 66° SSW
STARLINK-1069 4.4 19:31:09 10° WNW 19:33:34 32° WSW 19:33:34 32° WSW
STARLINK-1085 4.4 19:31:36 10° WNW 19:34:00 32° WSW 19:34:00 32° WSW
Cosmos 2251 Rocket 3.4 19:29:14 10° S 19:34:31 70° ESE 19:39:53 10° NNE
STARLINK-1086 4.5 19:32:06 10° WNW 19:34:25 30° WSW 19:34:25 30° WSW
STARLINK-1110 3.7 19:33:30 10° WNW 19:37:29 63° SW 19:37:29 63° SW
Cosmos 1470 4.4 19:36:45 10° SW 19:40:17 33° WNW 19:43:51 10° N
Resurs 1-3 4.0 19:44:43 44° SSW 19:45:48 59° W 19:50:10 10° NNW
STARLINK-1122 4.1 19:42:42 10° WNW 19:46:17 50° WSW 19:46:17 50° WSW
ERS-1 Rocket 4.5 19:48:48 23° NE 19:48:48 23° NE 19:51:37 10° N
ISS -1.6 19:46:14 10° NW 19:48:11 23° N 19:48:11 23° N
USA 245 4.5 19:50:07 45° NE 19:50:07 45° NE 19:54:53 10° N
Cosmos 2154 Rocket 4.1 19:44:58 10° N 19:51:13 54° ENE 19:51:33 53° E
STARLINK-1126 4.4 19:47:21 10° WNW 19:50:44 45° WSW 19:50:44 45° WSW
Resurs 01 Rocket 1.7 19:53:05 72° WSW 19:53:09 72° W 19:57:33 10° NNW
BREEZE M DEB (TANK) 3.5 19:43:02 10° SW 19:53:42 73° SSE 19:53:49 73° SE
Cosmos 2369 Rocket 2.0 19:51:54 10° NNW 19:57:37 74° ENE 19:57:50 73° E
Cosmos 967 Rocket 4.3 19:53:00 10° SSW 19:59:24 74° ESE 20:05:53 10° NE
Cosmos 2263 4.4 19:55:46 10° NNW 20:00:59 56° NE 20:00:59 56° NE
Cosmos 1726 4.0 20:06:30 26° NNW 20:06:30 26° NNW 20:08:21 10° N
Nadezhda 1 Rocket 3.9 20:06:17 66° SSE 20:07:16 82° E 20:13:41 10° N
Cosmos 1943 3.8 20:19:28 48° NNE 20:19:28 48° NNE 20:23:29 10° NNE
Cosmos 1943 Rocket 2.6 20:17:23 10° NNW 20:22:45 52° WSW 20:22:51 52° WSW
NOSS 3-4 (A) 4.4 20:19:03 10° NNW 20:25:36 41° NE 20:25:57 41° NE
NOSS 3-4 (C) 4.5 20:19:09 10° NNW 20:25:42 41° NE 20:26:03 41° NE
SPOT 1/Viking Rocket 4.4 20:32:06 46° N 20:32:06 46° N 20:35:44 10° NNW
Spot 2 Rocket 4.2 20:33:07 52° NW 20:33:07 52° NW 20:37:13 10° NNW
NOSS 3-3 (A) 4.2 20:26:47 10° SW 20:32:32 62° NW 20:39:03 10° NNE
NOSS 3-3 (C) 4.2 20:26:53 10° SW 20:32:38 63° NW 20:39:09 10° NNE
Terra 3.9 20:49:37 21° N 20:49:37 21° N 20:51:17 10° N
Cosmos 2341 Rocket 4.5 20:48:55 10° N 20:53:51 57° N 20:53:51 57° N
ATLAS 2AS CENTAUR R/B 3.1 20:51:04 10° NNW 20:57:41 60° NNE 20:57:41 60° NNE
COSMOS 2455 4.3 21:07:38 10° NNW 21:11:09 31° N 21:11:09 31° N
